Theta_e
297 298 300 301 301 301 298 298 297 298 300 305 308 309 311 315 317 319 321 326 329 329 330 332 336 338 341 342 343 344 343 343 343 344 345 346 345 346 347 346 346 346 345 344
297 302 302 301 303 302 302 302 300 302 300 309 310 312 314 315 316 318 321 322 326 331 332 333 335 339 341 342 344 344 343 343 344 344 344 344 345 345 347 347 347 347 347 347
293 299 299 296 300 302 303 307 306 301 305 314 310 311 312 315 317 319 321 322 325 328 332 334 335 338 339 342 343 344 343 343 344 344 344 345 346 346 346 346 348 348 349 349
292 294 289 298 310 310 307 311 312 312 313 314 315 318 319 320 319 320 322 322 324 327 331 334 336 337 339 340 342 342 342 342 343 343 344 345 345 346 347 347 347 348 349 350
291 290 295 301 307 307 305 305 314 312 313 315 316 318 316 321 323 322 323 324 325 326 328 330 332 340 338 339 339 340 340 340 342 343 343 343 344 345 346 347 347 346 343 339
290 289 289 299 309 314 312 299 314 316 314 313 314 307 311 320 323 322 324 324 327 329 329 329 331 337 340 338 338 339 341 341 342 343 343 342 343 344 343 344 340 339 334 332
289 289 295 307 312 314 298 299 317 319 317 314 310 313 317 320 322 323 324 325 326 327 327 329 331 338 340 340 338 342 344 344 344 346 345 347 342 339 337 335 332 329 326 325
292 291 291 309 310 303 307 313 317 318 318 316 316 317 318 318 318 321 323 324 326 325 326 327 330 332 334 339 344 346 344 345 345 347 344 340 337 333 331 328 324 322 321 321
296 295 304 309 311 313 314 312 314 315 316 317 316 316 317 317 317 319 322 325 328 329 325 326 328 333 332 334 345 345 345 344 342 341 338 336 332 327 323 321 319 319 319 318
297 300 307 310 313 313 315 314 316 317 316 316 314 315 315 315 316 316 320 325 328 329 327 327 327 329 332 340 345 344 339 336 335 335 332 329 326 324 321 317 317 317 318 318
296 300 303 306 309 310 311 313 313 312 312 312 312 312 312 313 314 316 318 324 325 326 327 328 329 328 337 339 338 334 332 332 330 330 328 323 320 320 319 318 317 317 318 318
295 301 302 303 308 311 310 311 311 310 310 311 311 310 311 312 313 315 315 320 323 323 323 325 329 330 336 332 334 332 329 328 327 326 325 322 320 315 305 304 302 303 305 311
301 304 304 307 310 312 311 311 311 310 311 310 311 312 312 311 312 314 316 319 323 323 322 323 328 331 336 329 329 330 328 328 325 326 324 322 321 320 317 310 304 304 301 301
305 306 305 308 308 311 311 312 312 312 312 312 312 312 312 311 313 314 314 318 326 326 322 322 326 326 330 335 330 327 326 319 325 325 326 323 321 320 319 319 319 321 305 304
308 308 308 309 308 309 310 310 310 310 311 312 314 313 313 311 311 314 316 319 325 328 324 322 322 323 332 332 329 326 327 327 327 328 327 323 323 321 319 319 319 320 320 309
307 309 309 308 309 310 310 311 310 311 312 313 313 313 314 313 314 315 317 320 324 324 327 326 324 325 330 333 331 328 328 324 324 327 325 324 324 323 322 321 320 320 320 322
306 305 308 308 309 310 310 313 314 314 314 314 314 315 315 314 313 314 316 321 325 327 325 326 326 329 328 331 334 331 330 328 325 327 326 326 326 326 326 324 323 322 323 322
310 310 311 311 310 311 312 314 315 315 315 315 316 316 316 313 312 314 316 320 323 321 321 324 326 330 334 334 333 332 330 328 328 327 327 327 328 328 326 325 325 325 325 322
312 312 313 312 314 314 314 316 316 318 318 317 316 315 317 315 315 315 317 318 319 319 322 324 325 329 334 333 332 331 330 328 328 328 327 322 324 325 325 325 325 326 325 324
312 312 313 313 314 314 314 315 316 317 318 318 318 317 318 317 316 315 316 317 319 321 322 324 326 327 330 332 330 330 329 328 326 327 325 324 323 323 323 316 323 323 323 323
310 311 312 313 314 314 315 317 316 316 317 319 318 318 317 316 316 316 316 317 322 322 323 320 324 326 329 331 330 330 329 329 328 327 326 324 323 324 324 324 323 323 322 322
310 310 312 314 315 314 316 318 318 317 317 317 318 317 316 316 317 317 318 319 322 315 322 323 323 324 330 329 331 330 329 329 329 328 328 328 327 326 324 324 324 324 324 321
310 310 312 315 315 316 318 318 318 319 316 315 315 316 315 317 317 316 317 322 322 321 326 329 322 319 321 330 330 330 330 329 327 326 325 327 327 326 326 325 324 325 323 323
310 312 314 316 317 317 316 318 319 318 316 316 316 317 316 315 317 319 323 316 315 317 326 325 319 316 319 328 328 329 329 328 326 324 323 314 324 323 322 322 321 321 321 317
311 314 316 315 315 315 317 319 318 317 318 318 320 320 320 320 319 321 322 322 314 321 326 315 316 317 324 327 327 326 326 325 327 327 325 323 320 317 315 314 313 313 311 308
312 314 314 315 314 317 317 317 316 317 318 318 320 322 323 324 323 321 322 320 323 318 324 326 326 326 326 326 326 326 325 324 324 322 319 318 316 314 311 309 307 305 303 302
312 308 313 313 314 316 316 315 316 316 317 320 318 320 322 323 322 322 318 323 323 323 324 326 326 323 323 320 318 316 315 314 310 314 313 310 309 307 305 304 303 302 300 300
Wind_Speed
5 6 4 5 5 7 6 4 6 5 8 8 7 8 7 2 6 6 7 5 6 7 7 6 6 8 8 7 8 8 8 8 9 8 7 6 6 6 6 6 6 6 6 5
5 3 6 5 6 7 5 2 6 0 7 2 9 7 5 9 8 4 7 7 6 6 7 7 7 7 7 8 9 10 8 9 6 6 7 7 6 7 6 6 6 6 6 7
5 2 6 6 6 6 5 3 2 5 5 6 8 10 10 11 7 5 6 7 5 6 6 5 8 7 9 8 8 9 9 7 7 8 8 7 7 6 6 7 5 6 6 6
4 2 5 5 6 4 8 2 2 4 5 7 8 8 3 8 11 13 10 8 9 5 6 6 5 3 4 8 9 9 8 8 8 9 8 8 7 7 6 5 6 5 5 5
3 4 5 4 4 4 3 3 4 3 6 7 9 4 2 12 12 7 8 6 3 4 3 4 5 1 5 4 4 7 9 9 9 9 9 8 8 8 6 5 4 3 2 4
2 3 6 1 2 3 1 4 4 2 3 6 10 4 4 10 11 11 10 5 6 4 2 5 3 3 5 5 6 9 11 10 9 9 9 9 8 6 4 3 5 5 5 4
2 3 4 4 9 1 5 4 1 2 3 3 3 3 8 9 9 6 6 7 5 5 5 2 3 2 3 4 9 9 4 5 9 9 9 7 6 4 6 7 7 5 5 4
2 0 4 6 3 3 3 3 1 2 4 4 5 7 7 7 6 7 8 8 5 5 4 5 2 2 1 0 4 6 6 8 6 7 7 7 10 6 7 8 7 6 5 4
6 6 4 4 0 2 3 2 1 1 4 6 8 6 8 6 7 6 5 4 4 3 2 4 5 1 2 3 5 5 7 8 7 7 6 10 10 8 5 6 6 5 4 3
3 3 3 2 1 1 1 3 4 4 5 4 7 8 8 7 7 7 3 1 1 2 3 5 4 5 3 3 5 7 9 10 7 3 5 6 5 6 5 5 6 5 4 3
4 6 5 7 6 6 6 5 6 5 5 7 6 9 7 8 7 9 7 4 4 5 3 1 6 7 1 4 3 6 9 6 15 4 9 7 7 3 4 1 5 6 3 3
7 8 5 6 8 4 6 6 7 5 8 12 8 11 10 8 7 6 10 4 7 7 5 5 5 5 5 6 10 12 10 10 12 13 11 6 2 5 8 7 9 10 7 3
7 5 7 9 6 5 6 9 9 7 11 13 15 15 11 9 8 10 8 9 9 12 8 7 7 7 8 9 8 11 11 12 10 14 16 8 6 3 5 2 5 6 5 5
7 2 7 6 7 7 7 9 10 14 14 14 14 14 12 11 12 11 11 11 11 8 9 10 8 5 6 6 9 12 12 15 11 13 14 7 7 5 3 4 4 2 7 8
6 6 7 6 7 11 11 12 13 13 14 14 13 12 12 10 10 13 9 9 11 11 10 10 12 7 7 8 11 11 10 9 10 10 16 16 8 4 4 3 3 2 1 2
7 6 7 8 12 13 13 14 15 15 14 15 14 13 12 10 10 13 11 10 8 12 15 12 9 7 8 8 6 4 8 6 7 7 12 12 7 7 5 4 4 4 4 4
5 8 8 13 14 15 16 16 15 16 16 16 16 13 10 9 10 12 12 10 10 13 7 4 5 6 7 5 5 4 6 5 8 4 9 9 8 8 6 5 5 5 7 4
7 9 11 13 14 15 16 16 16 17 15 17 15 14 12 9 11 13 12 9 6 5 5 5 5 8 7 6 4 2 4 3 4 5 7 6 7 6 6 6 5 6 6 2
8 11 13 15 14 16 17 15 15 14 14 14 14 15 13 11 11 11 9 7 7 6 9 6 8 8 8 7 9 5 7 6 6 5 6 7 6 6 5 5 6 6 4 3
11 10 13 15 15 15 16 17 15 13 14 14 14 12 13 11 9 9 7 9 8 6 5 6 7 6 6 6 10 7 6 7 8 7 7 6 6 6 6 7 5 4 4 4
13 14 15 17 16 17 14 13 12 14 15 12 10 11 10 8 6 6 5 6 4 7 8 7 5 5 4 6 9 8 7 6 7 7 7 6 7 7 6 5 5 5 5 5
11 12 15 16 14 14 13 13 12 12 11 8 6 6 5 7 6 5 6 7 2 5 3 4 6 8 5 10 6 7 7 9 7 6 5 5 5 5 6 6 7 6 6 6
11 12 14 14 13 13 13 10 11 8 7 6 5 6 6 4 2 3 4 3 4 5 2 3 7 11 12 6 5 7 7 7 5 4 4 3 3 3 4 4 4 3 2 2
11 12 14 14 13 11 11 10 8 6 6 6 6 5 3 3 3 4 3 1 6 4 4 3 5 11 8 3 4 6 6 6 4 4 6 8 5 6 6 6 6 7 6 6
10 12 13 13 12 8 10 9 6 4 5 4 4 4 3 3 4 1 2 2 5 3 6 9 12 9 4 4 5 6 7 7 6 7 8 9 8 8 8 8 7 8 8 8
10 9 10 12 9 8 7 6 4 2 3 2 2 3 3 2 2 4 5 6 7 6 5 8 3 8 7 7 9 8 9 8 8 9 9 9 9 6 8 7 7 8 7 7
8 9 9 9 9 9 8 7 2 3 3 3 4 4 4 4 5 6 8 7 7 9 8 8 9 11 7 7 9 10 10 10 11 10 9 9 7 8 8 8 8 7 8 7
Wind_Direction
270 257 263 216 204 177 186 187 162 254 205 260 286 289 290 354 320 268 300 266 237 184 193 189 178 173 180 184 174 170 177 182 196 187 174 167 183 194 199 204 213 217 222 226
336 355 341 286 229 186 208 159 281 235 273 282 292 272 311 339 322 292 310 303 277 253 183 197 193 193 185 174 171 164 181 196 176 166 166 182 185 196 199 212 215 215 220 228
257 337 330 301 248 212 131 91 124 203 247 330 313 325 16 357 7 330 311 292 291 296 280 216 191 179 195 187 155 180 185 182 178 169 172 181 188 187 203 216 210 222 238 232
234 46 243 241 3 54 109 127 236 280 302 295 282 302 40 9 359 352 354 324 324 7 6 357 329 279 156 166 179 180 188 181 180 180 189 187 189 197 200 196 214 216 229 246
176 197 279 124 0 13 42 238 190 231 311 314 315 307 112 14 5 333 319 319 333 358 43 46 34 20 169 194 189 179 201 195 191 192 194 187 194 194 193 179 176 167 114 118
139 179 220 278 331 6 4 276 155 186 359 349 346 30 295 346 342 345 345 331 3 51 61 60 306 356 148 195 187 216 209 205 193 194 195 192 197 180 157 151 134 128 124 101
177 224 288 290 317 295 142 238 108 332 320 18 30 212 274 311 320 312 327 336 353 357 46 341 287 353 52 203 216 225 221 215 187 194 193 177 140 144 138 127 126 106 94 72
101 218 253 349 342 117 240 319 351 304 306 311 282 282 287 300 306 321 335 352 351 345 338 324 66 61 56 246 248 225 176 172 196 198 161 148 139 134 139 131 115 107 106 97
171 222 250 278 278 178 177 235 263 244 276 277 289 289 299 304 321 313 314 347 329 303 243 306 322 327 294 304 247 189 169 164 163 157 169 149 145 139 133 128 124 110 107 90
26 269 234 250 278 334 268 248 270 231 236 248 269 294 300 306 311 313 323 102 238 185 178 261 301 305 320 273 258 159 152 134 104 314 181 135 121 128 154 139 117 119 129 120
258 280 292 277 243 258 273 282 292 299 266 278 276 280 274 291 301 307 305 184 197 184 186 164 236 239 165 139 126 69 63 44 77 9 270 145 109 118 142 89 125 135 143 146
230 227 191 241 266 246 251 259 260 269 301 304 294 282 284 273 274 273 287 251 206 214 225 230 234 234 164 154 137 122 122 118 133 102 336 325 117 114 34 89 97 92 120 151
226 220 212 251 270 254 251 253 250 262 276 276 281 286 283 261 264 269 269 274 226 226 217 237 228 220 200 180 159 148 152 142 131 127 115 283 297 238 152 125 132 149 184 200
249 235 284 226 247 263 259 260 273 276 271 270 269 276 272 266 265 265 266 261 255 222 204 223 229 234 256 225 200 171 185 182 153 139 145 146 245 250 228 168 141 161 215 214
269 216 248 286 291 276 270 274 273 266 263 269 267 256 262 259 256 264 266 269 261 247 234 224 227 219 212 217 212 191 164 173 169 163 135 158 184 201 229 182 148 179 216 168
300 295 291 275 284 283 283 279 274 273 269 265 263 259 255 249 254 272 270 272 236 234 237 235 237 195 211 207 228 221 214 233 236 176 138 124 156 195 200 200 195 217 229 224
297 298 293 293 294 295 292 284 280 278 275 273 268 264 259 244 259 272 273 270 238 244 252 232 249 209 236 235 194 184 198 191 182 156 118 135 172 194 201 196 202 222 240 200
241 258 270 271 284 289 289 283 279 276 271 269 266 263 256 239 248 266 270 283 262 250 247 243 210 210 220 206 180 189 253 206 163 112 105 148 187 186 196 201 208 227 248 205
267 274 287 291 291 297 296 287 285 278 275 269 267 261 257 240 239 257 270 266 265 247 263 207 204 200 216 207 169 167 188 174 163 154 163 159 160 184 192 203 227 236 252 235
295 289 285 289 300 296 295 299 299 287 286 281 260 253 250 236 236 245 254 252 234 228 175 196 212 214 198 191 188 171 190 167 164 166 157 155 165 181 194 206 218 242 232 242
298 296 298 301 296 306 300 297 296 297 296 282 252 248 229 237 231 237 241 240 245 196 209 184 195 221 210 161 177 172 172 172 164 162 165 171 181 190 196 206 212 232 224 240
297 301 301 303 304 301 302 306 307 294 286 268 249 228 228 243 248 232 231 233 145 187 208 202 197 212 187 167 179 175 167 173 161 159 161 177 181 197 210 202 212 229 227 233
296 297 296 301 303 298 296 300 311 307 284 257 242 231 231 250 215 208 264 248 189 216 222 222 191 184 159 163 170 182 177 153 146 145 152 169 184 201 216 203 186 198 200 108
307 306 305 305 300 301 297 306 316 311 298 276 265 259 256 285 272 220 238 218 197 165 102 81 134 151 168 143 152 154 146 119 128 124 109 101 100 95 93 98 99 92 87 74
308 311 312 319 314 303 299 302 308 308 321 318 303 316 329 274 240 12 116 125 149 138 95 69 84 82 79 96 99 110 107 100 95 111 112 103 101 92 87 83 75 78 81 66
322 325 325 327 324 320 313 304 285 329 330 21 21 353 350 345 30 58 79 89 100 98 96 85 99 76 66 83 86 95 96 106 96 82 81 81 85 90 86 89 83 76 70 71
330 325 337 338 338 332 323 328 113 61 32 24 48 19 26 61 68 68 74 73 82 93 85 92 84 73 70 81 86 79 77 72 74 80 77 81 82 80 79 80 77 77 78 67